Location: Unspecified
(49.2170°N, 0.0000°E)
Time: 21:59:42
(UTC+00:00)

Courier 1B Rocket - All Passes

Search period start: 21 January 2021 00:00
Search period end: 31 January 2021 00:00
Orbit: 920 x 1202 km, 28.2° (Epoch: 20 January)

Date Brightness Start Highest point End Pass type
(mag) Time Alt. Az. Time Alt. Az. Time Alt. Az.
21 Jan - 08:49:02 10° SSW 08:51:58 13° S 08:54:58 10° SSE daylight
21 Jan - 10:40:45 10° SSW 10:44:07 13° S 10:47:31 10° SSE daylight
22 Jan - 07:49:50 10° S 07:51:17 11° SSE 07:52:46 10° SSE daylight
22 Jan - 09:39:56 10° SSW 09:43:22 14° S 09:46:51 10° SSE daylight
23 Jan - 08:39:30 10° SSW 08:42:39 13° S 08:45:50 10° SSE daylight
23 Jan - 10:32:26 10° SSW 10:34:46 12° S 10:37:07 10° S daylight
24 Jan - 07:39:35 10° S 07:41:57 12° S 07:44:22 10° SSE daylight
24 Jan - 09:31:10 10° SSW 09:34:03 13° S 09:36:58 10° SSE daylight
25 Jan - 08:30:25 10° SSW 08:33:20 13° S 08:36:18 10° SSE daylight
26 Jan - 07:30:07 10° SSW 07:32:40 12° S 07:35:15 10° SSE daylight
26 Jan - 09:23:16 10° SSW 09:24:44 11° S 09:26:12 10° S daylight
27 Jan - 06:30:27 10° S 06:32:02 11° S 06:33:38 10° SSE visible
27 Jan - 08:21:53 10° SSW 08:24:03 12° S 08:26:16 10° SSE daylight
28 Jan - 07:21:09 10° SSW 07:23:23 12° S 07:25:40 10° SSE daylight
29 Jan - 06:20:56 10° SSW 06:22:46 11° S 06:24:37 10° SSE visible
30 Jan - 07:13:00 10° SSW 07:14:09 10° S 07:15:17 10° S daylight
